Regional Weather Roundup
Issued by NWS Lake Charles, LA

Home | Current Version | Previous Version | Text Only | Print | Product List | Glossary On
Versions: 1 2 3 4 5 6 7 8 9 10 11 12 13 14 15 16 17 18 19 20 21 22 23 24 25 26 27
000
ASUS44 KLCH 032310
RWRLCH
REGIONAL WEATHER ROUNDUP
NATIONAL WEATHER SERVICE LAKE CHARLES LA
600 PM CDT TUE MAY 03 2016

Note: "fair" indicates few or no clouds below 12,000 feet with no
significant weather and/or obstructions to visibility.


ACROSS SOUTHEAST TEXAS

CITY           SKY/WX    TMP DP  RH WIND       PRES   REMARKS
BEAUMONT       SUNNY     77  57  50 N12       29.93S
BEAUMONT CITY  FAIR      76  52  42 NW13      29.95R
ORANGE         CLEAR     75  51  44 N8        29.95S
JASPER         SUNNY     72  52  49 N10       29.99S
$$

ACROSS CENTRAL LOUISIANA

CITY           SKY/WX    TMP DP  RH WIND       PRES   REMARKS
LEESVILLE      MOSUNNY   72  55  54 N10       29.96S
FULLERTON      FAIR      71  54  54 CALM      29.93S
ALEXANDRIA INT SUNNY     73  54  51 NW12      29.94S
ESLER FIELD    SUNNY     76  55  48 NW7       29.95R
DERIDDER       FAIR      72  55  54 N9        29.98S
OAKDALE        MOCLDY    75  57  52 N7        29.94R
OPELOUSAS      FAIR      73  58  60 N8        29.93S
$$

ACROSS SOUTHWEST AND SOUTH CENTRAL LOUISIANA

CITY           SKY/WX    TMP DP  RH WIND       PRES   REMARKS
SULPHUR        CLEAR     76  56  50 N9        29.94S
LAKE CHARLES   SUNNY     77  57  50 N9        29.93S
CHENNAULT INT  MOSUNNY   73  57  56 N9        29.93S
CAMERON PHI    CLEAR     75  59  57 N10       29.95F
DEQUINCY       FAIR      73  55  52 N9        29.95S
JENNINGS       MOCLDY    75  57  53 N13       29.93S
LAFAYETTE      MOSUNNY   76  57  51 N9        29.92S
NEW IBERIA     SUNNY     75  59  57 N9        29.92S
ABBEVILLE      FAIR      75  60  59 N8        29.92S
PATTERSON      NOT AVBL
SALT POINT       N/A     74  62  66 N7        29.91R
$$

SELECTED SITES ACROSS THE REGION

CITY           SKY/WX    TMP DP  RH WIND       PRES   REMARKS
HOUSTON BUSH   SUNNY     74  49  41 N8        29.96F
HOUSTON HOBBY  SUNNY     77  49  37 N12       29.95S
GALVESTON      SUNNY     74  55  51 N15       29.95F
COLLEGE STAT   SUNNY     73  46  38 NE14      30.00S
CONROE         SUNNY     74  49  41 N10       29.98S
HUNTSVILLE     SUNNY     73  49  42 NW10      29.99S
LUFKIN         SUNNY     72  49  44 NW9       29.99S
SHREVEPORT     MOSUNNY   71  49  45 N7        29.99S
MONROE         PTSUNNY   71  54  54 N8        29.97S
NATCHEZ MS     PTSUNNY   72  54  53 N8        29.95R
BATON ROUGE    MOSUNNY   76  57  51 VRB6      29.91S
N.O. INTL ARPT MOSUNNY   76  65  68 N9        29.90F
SLIDELL        MOSUNNY   75  65  70 NW7       29.89S
$$

MARINE REPORTS

STATION/POSITION TIME  SKY/WX   TEMP    WIND        PRES    VSBY
                                AIR SEA DIR/SP/G
                 (UTC)          (F)     (DEG/KT/KT) (MB)    (MI)
BUOY 30 S HIGH I 2250            74 76  330/ 12/ 16 1013.2F
WVE H/P(F/S)=  2/ 8

SEA RIM ST PARK  2300            75     360/ 11/ 13 1014.0R
PORT ARTHUR      2200               76              1013.7F
SABINE PASS N    2200            75 77              1014.9F
TEXAS POINT      NOT AVBL
CALCASIEU PASS   2200            74 77              1012.6F
LK CHARLES BEACH 2200            76 73              1014.0F
MARSH ISLAND     NOT AVBL
FRESH WATER LOCK 2200            74 75              1013.7F
AMERADA PASS     2200            74 76              1012.5F
$$




USA.gov is the U.S. government's official web portal to all federal, state and local government web resources and services.